User: anonymous   Login
Location: Unspecified
(0.0000°N, 0.0000°E)
Time: 05:29:00
(UTC+00:00)
Language:

USA 227 - Orbit

View from above orbital plane
View from above orbital plane
View from above satellite
View from above satellite

Ground track
Ground track

The orbit data is extracted from the following two-line orbital elements,

1 37377U 11011A   17321.23927856 0.00000000  00000-0  00000-0 0    00
2 37377   4.6593   1.7114 0011171 189.6989 170.2921  1.00270000    03
Epoch (UTC): 17 November 2017 05:44:33
Eccentricity: 0.0011171
inclination: 4.6593°
perigee height: 35739 km
apogee height: 35834 km
right ascension of ascending node: 1.7114°
argument of perigee: 189.6989°
revolutions per day: 1.00270000
mean anomaly at epoch: 170.2921°
orbit number at epoch: 0

The dashed part of the orbit path shows where the satellite is in the earth's shadow,  

DLR